Temperature
18 18 17 16 16 15 15 15 14 14 14 13 13 13 13 13 12 12 12 12 12 12 11 11 11 11 11 10 10 10 10 10 10 10 11 11 11 11 11 12 12 12 13
19 18 17 17 16 16 15 15 14 14 14 13 13 13 13 13 13 13 12 12 12 12 11 11 11 11 11 10 10 10 10 10 10 10 10 10 11 11 11 11 11 12 12
19 18 17 17 16 16 15 15 14 14 14 14 14 13 13 13 13 13 12 12 12 12 12 11 11 11 11 10 10 10 10 10 9 9 10 10 10 10 10 11 11 11 11
19 18 18 17 17 16 15 15 15 14 14 14 14 14 13 13 13 13 12 12 12 12 12 11 11 11 11 10 10 10 10 10 9 9 9 9 10 10 10 10 10 11 11
19 19 18 17 17 16 16 15 15 15 15 14 14 14 14 13 13 13 12 12 12 12 12 11 11 11 11 10 10 10 10 9 9 9 9 9 9 10 10 10 10 10 10
19 19 18 18 17 17 16 16 15 15 15 15 14 14 14 14 13 13 12 12 12 12 12 11 11 11 11 10 10 10 9 9 9 9 9 9 9 9 9 9 9 9 10
20 19 19 18 17 17 17 16 16 15 15 15 15 14 14 14 13 13 13 12 12 12 12 11 11 11 11 10 10 10 9 9 9 9 9 9 9 9 9 9 9 9 9
20 19 19 18 18 17 17 16 16 16 15 15 15 14 14 14 13 13 13 12 12 12 12 12 11 11 11 10 10 10 10 9 9 9 9 9 9 8 8 8 8 8 9
19 19 19 18 18 17 17 17 16 16 15 15 15 14 14 14 14 13 13 12 12 12 12 12 11 11 11 10 10 10 10 10 9 9 9 8 8 8 8 8 8 8 8
19 19 19 18 18 17 17 16 16 15 15 15 15 14 14 14 14 13 13 12 12 12 12 12 12 11 11 11 10 10 10 10 9 9 9 9 8 8 8 8 8 8 7
19 18 18 18 17 17 16 16 15 15 15 14 14 14 14 14 14 13 13 12 12 12 12 12 12 12 11 11 10 10 10 9 9 9 9 9 9 9 9 8 8 8 7
18 17 17 17 17 16 16 16 15 15 14 14 14 14 14 14 13 13 13 13 12 12 12 12 12 12 11 11 10 10 10 9 9 9 9 9 9 9 9 8 8 8 8
17 17 16 16 16 15 15 15 15 14 14 14 13 13 13 13 13 13 13 13 12 12 12 12 12 12 11 11 11 10 10 9 9 9 9 9 9 9 8 8 8 8 8
16 16 15 15 15 14 14 14 14 13 13 13 13 13 13 13 13 13 12 12 12 12 12 12 12 11 11 11 11 10 10 9 9 9 9 9 9 8 8 8 8 8 8
15 14 14 14 14 13 13 13 13 13 12 12 12 12 12 12 12 12 12 12 12 12 12 12 12 11 11 11 11 10 10 9 9 9 9 8 9 8 8 8 8 8 8
13 13 13 12 12 12 12 12 12 12 11 11 11 11 11 11 11 12 12 12 12 11 11 11 12 12 11 11 11 10 10 10 9 9 9 8 8 8 8 8 8 8 8
12 12 11 11 11 11 11 11 11 11 11 11 11 11 11 11 11 11 11 11 11 11 11 11 11 11 11 11 11 10 10 10 9 9 9 9 8 8 8 8 8 8 8
11 11 10 10 10 10 10 10 10 10 10 10 10 10 10 10 10 10 11 11 11 11 11 11 11 11 11 11 10 10 10 10 9 9 9 8 8 8 8 8 8 8 8
10 10 10 10 10 9 9 9 9 9 9 9 9 10 10 10 10 10 10 10 10 10 10 10 11 11 10 10 10 10 10 9 9 9 9 8 8 8 8 8 8 8 8
10 10 10 9 9 9 9 9 9 8 8 8 8 9 9 9 9 9 9 9 9 10 10 10 10 10 10 10 10 10 9 9 9 9 9 8 8 8 8 8 8 8 8
9 9 9 9 9 9 8 8 8 8 8 8 8 8 8 8 8 8 8 9 9 9 9 9 9 10 10 10 9 9 9 9 9 8 8 8 8 8 8 8 8 8 8
9 9 9 9 8 8 8 8 8 7 7 7 7 8 8 7 7 8 8 8 8 9 9 9 9 9 9 9 9 9 9 9 8 8 8 8 8 8 8 8 8 8 8
9 9 8 8 8 8 8 7 7 7 7 7 7 7 7 7 7 7 7 7 8 8 8 8 9 9 9 9 9 9 8 8 8 8 8 8 7 7 7 7 7 7 7
8 8 8 8 7 7 7 7 7 6 6 6 6 6 6 6 6 7 7 7 7 8 8 8 8 8 8 8 8 8 8 8 8 8 7 7 7 7 7 7 7 7 7
8 8 7 7 7 7 7 6 6 6 6 6 5 5 6 6 6 6 6 7 7 7 7 7 8 8 8 8 8 8 8 8 7 7 7 7 7 7 7 7 7 7 7
7 7 7 7 6 6 6 6 5 5 5 5 5 5 5 5 5 6 6 6 6 7 7 7 7 7 7 7 7 7 7 7 7 7 7 7 7 7 7 7 7 7 7
Wind_Speed
10 9 8 8 7 6 6 6 6 5 5 5 5 5 4 4 4 3 4 4 4 4 4 4 5 4 3 3 3 4 4 5 6 6 4 4 4 7 8 9 9 9 9
11 9 9 8 7 7 7 7 6 6 6 6 5 5 5 5 4 5 5 4 5 5 5 5 6 4 5 4 4 5 5 6 6 8 5 4 5 6 6 7 7 7 8
10 10 9 9 9 9 8 7 7 7 6 6 6 6 6 6 5 6 6 6 6 6 6 6 6 5 6 5 5 6 5 5 6 6 6 4 4 4 5 5 6 6 7
11 11 11 11 11 10 9 8 8 7 7 7 7 7 7 6 6 6 6 6 6 7 7 7 7 7 8 7 6 7 6 6 6 6 7 6 5 5 4 5 6 4 5
11 12 12 11 9 9 8 8 8 8 8 7 7 7 7 6 7 7 7 7 7 8 7 7 8 9 11 9 7 7 7 6 6 6 7 6 6 5 5 4 6 6 6
12 13 11 9 9 10 10 9 8 8 7 7 8 8 8 7 10 12 9 8 8 8 9 9 8 10 12 12 13 12 11 9 9 8 8 8 9 8 6 6 5 5 5
12 11 10 11 11 11 10 9 9 9 8 8 8 8 9 10 13 13 13 9 9 10 10 10 9 9 10 9 10 11 12 13 14 11 11 12 10 8 6 7 7 7 8
11 10 10 10 10 9 8 9 9 7 7 8 9 9 9 11 14 14 14 10 10 11 11 11 11 11 10 10 9 9 10 10 11 10 11 12 12 10 9 8 8 8 8
10 10 10 11 10 10 10 10 8 7 8 8 7 9 10 12 14 15 13 8 9 12 12 12 12 12 14 13 10 11 12 11 11 14 15 15 15 15 11 7 7 7 8
10 9 8 9 10 10 10 9 7 7 8 8 9 9 11 12 14 15 13 8 10 11 10 11 14 15 16 14 11 11 12 12 10 9 9 10 11 12 13 11 10 10 9
5 5 5 6 7 7 7 6 6 6 7 7 9 9 10 12 14 16 15 9 11 11 11 10 10 15 17 17 14 12 15 13 9 9 9 9 9 8 9 10 10 11 11
4 4 5 5 6 5 6 5 5 5 6 7 8 9 9 9 12 14 16 16 14 12 12 11 11 14 15 16 13 14 16 12 9 8 9 10 10 10 9 9 11 12 13
3 3 3 4 4 4 4 5 4 4 5 6 7 8 9 8 9 15 17 17 17 13 12 15 16 15 13 12 15 15 12 9 9 9 11 12 11 11 9 7 8 10 12
2 2 2 2 2 3 3 4 4 5 6 6 7 8 9 8 8 8 8 10 12 12 12 13 15 14 12 12 11 10 9 9 10 11 11 11 9 8 9 8 7 7 7
2 1 1 0 1 2 2 4 5 6 6 7 7 8 9 10 12 13 10 9 9 9 7 6 7 7 9 9 9 9 8 8 9 10 10 10 10 9 9 8 7 7 7
3 3 2 1 1 2 3 4 6 9 11 13 14 13 11 14 18 18 18 17 17 12 7 8 10 11 11 11 10 9 8 9 9 9 10 10 10 9 9 8 7 8 9
3 2 2 2 3 3 3 4 6 7 9 12 14 15 15 17 19 19 18 16 13 9 8 10 12 12 11 11 10 10 9 9 8 9 9 10 10 9 9 9 9 9 10
3 3 2 2 3 3 4 5 5 7 8 8 9 12 15 16 17 17 14 8 7 6 8 11 12 11 11 10 10 10 9 8 8 9 9 9 9 9 9 10 10 11 10
2 2 2 3 3 4 5 5 6 7 8 9 9 11 13 13 12 12 8 6 8 9 9 11 11 11 10 10 10 9 9 9 9 8 9 10 9 9 10 10 10 12 12
3 5 5 3 4 5 5 6 7 7 8 9 9 10 9 8 9 9 7 8 9 10 10 11 10 11 10 10 9 9 9 9 9 9 9 9 9 9 10 11 10 10 10
4 6 8 6 5 6 6 7 8 8 9 10 10 12 12 10 11 12 11 10 10 11 11 10 10 10 10 9 9 10 10 9 9 9 9 8 8 9 9 9 10 10 10
5 5 5 6 7 7 8 8 8 9 10 12 11 12 13 10 11 11 11 11 11 10 10 10 10 9 9 9 9 9 9 9 8 8 8 8 8 8 8 8 8 8 9
5 6 7 7 7 9 9 8 9 9 10 11 11 11 11 10 11 11 11 11 10 10 9 9 9 9 8 8 8 8 8 8 7 7 7 7 7 8 8 8 9 9 10
5 6 7 8 8 8 8 9 9 10 11 11 11 11 11 11 11 12 11 10 10 9 8 8 8 9 10 7 6 6 6 6 5 5 7 7 8 8 8 8 9 10 10
6 6 7 7 8 8 8 9 9 10 10 10 11 11 11 11 11 11 10 9 10 8 8 7 5 5 6 6 5 4 3 4 4 4 5 6 8 9 9 9 8 9 9
6 7 7 7 7 8 8 9 9 10 10 10 10 10 10 10 10 10 9 8 8 7 6 5 4 4 3 3 3 3 3 3 4 5 5 5 7 8 8 7 9 9 9
Wind_Direction
185 184 180 184 183 179 186 196 196 197 197 203 209 212 220 224 219 213 232 233 236 249 248 242 253 253 252 249 236 229 226 221 253 272 263 273 279 285 297 301 295 290 289
186 182 185 183 179 186 198 202 198 204 207 209 210 217 226 228 223 223 240 241 240 251 254 249 257 256 252 250 242 240 238 228 238 269 278 275 267 275 282 290 293 291 286
179 180 182 183 187 197 203 203 201 205 210 211 210 218 226 230 230 232 234 243 245 248 250 248 253 250 257 255 249 250 251 249 235 252 271 269 270 273 281 284 285 285 287
178 181 188 194 197 201 202 202 205 206 209 213 216 221 227 231 235 238 237 243 249 252 250 247 249 245 251 256 256 253 253 256 251 252 265 270 270 271 265 275 285 281 288
179 188 199 199 198 198 201 206 208 209 215 216 219 228 231 233 237 236 237 243 247 255 256 252 251 251 250 248 251 252 250 254 257 257 265 270 271 269 263 260 273 285 284
186 197 198 193 196 202 206 207 208 213 218 216 222 229 235 239 240 237 233 241 245 249 258 260 258 259 260 259 256 253 245 246 252 255 262 263 267 264 262 259 264 276 283
194 199 195 194 201 207 207 205 211 215 215 220 228 231 238 244 245 247 242 239 244 248 250 256 260 257 249 255 261 265 261 250 243 247 256 259 262 257 254 260 254 252 259
195 200 197 196 205 207 204 211 216 214 216 225 232 234 240 249 247 247 248 245 247 249 248 247 251 258 255 247 255 263 265 262 254 249 248 253 255 255 246 253 262 264 263
200 204 200 197 202 203 208 216 215 213 222 226 231 233 239 251 249 247 246 245 249 253 252 247 244 251 252 242 245 256 266 269 262 250 246 250 253 252 244 247 250 252 267
205 205 199 196 200 206 213 215 212 214 227 232 239 239 240 249 251 247 240 240 250 256 257 251 241 241 247 240 237 244 256 264 267 270 262 261 262 261 249 238 241 248 258
191 180 184 191 200 207 208 209 210 215 227 236 246 251 247 249 256 253 243 232 242 251 255 256 250 237 238 240 233 237 244 251 261 263 269 270 268 262 255 242 234 235 243
169 183 196 199 206 210 205 214 212 215 231 244 251 262 260 254 251 255 249 237 234 243 251 253 250 241 236 238 236 237 242 247 255 259 263 265 264 261 256 247 239 235 238
168 190 205 204 207 211 207 219 220 219 233 250 254 263 270 265 257 252 254 251 239 236 248 247 246 246 241 244 241 239 241 244 244 250 256 260 258 259 259 256 250 243 245
155 205 207 204 222 221 220 220 223 231 240 252 259 264 270 272 272 268 262 261 254 245 248 251 251 249 244 245 248 245 238 235 235 246 255 260 260 256 253 248 251 247 250
65 48 33 327 241 249 247 240 238 239 237 247 260 263 269 274 271 264 265 268 262 257 251 248 248 246 245 243 243 243 240 236 237 242 248 255 256 254 253 243 239 238 239
56 40 30 7 344 313 297 299 264 255 267 261 258 263 268 263 271 277 274 268 264 259 240 245 247 245 245 245 244 244 240 237 237 239 242 246 250 252 253 246 235 237 244
57 35 17 3 348 333 323 312 309 303 281 273 270 270 265 270 275 277 276 276 268 239 229 243 245 245 243 242 241 242 244 243 237 236 240 244 246 248 248 248 242 240 243
39 18 1 334 322 315 309 301 296 298 305 303 291 282 280 279 279 277 273 272 264 227 234 243 246 245 242 240 240 241 243 245 240 239 240 243 243 244 245 245 243 242 243
6 335 320 312 307 302 301 300 297 293 290 292 299 300 295 292 286 280 268 249 255 253 245 244 246 247 244 241 241 241 241 243 244 240 241 242 242 240 243 245 245 242 240
314 312 313 305 304 305 304 302 301 297 295 295 295 296 300 302 300 296 280 261 259 259 254 250 247 246 242 241 240 238 238 240 243 243 244 245 242 239 242 245 244 242 238
298 306 313 310 301 298 298 298 297 295 295 296 294 291 288 291 289 288 285 277 266 262 259 255 251 247 242 239 238 236 236 240 241 243 245 245 243 241 242 243 244 243 242
284 290 296 297 298 298 297 296 297 295 296 297 298 299 295 289 287 286 284 281 276 268 262 257 255 249 241 236 234 234 236 241 244 244 246 247 246 245 244 243 243 242 240
279 287 292 293 294 294 297 299 299 298 299 299 300 301 302 298 293 290 289 286 282 278 271 260 255 253 246 239 233 231 237 241 244 245 247 250 250 248 245 243 244 246 241
283 286 290 294 295 295 295 298 298 299 301 302 303 302 301 302 300 297 295 294 290 286 280 270 262 257 251 243 235 234 237 239 241 243 246 250 255 256 252 249 249 248 247
292 291 292 294 297 297 297 297 299 301 303 304 305 306 305 306 305 303 302 299 297 296 295 289 278 268 262 255 249 241 227 225 238 247 247 248 255 259 259 257 253 253 249
301 300 300 300 299 300 300 301 303 304 304 306 308 309 309 308 308 307 309 312 312 310 306 305 300 291 285 278 267 257 239 241 247 247 247 249 254 258 260 258 258 254 253
Height
1529 1531 1534 1535 1537 1537 1538 1539 1540 1540 1541 1542 1543 1543 1543 1543 1543 1543 1542 1542 1542 1541 1540 1540 1539 1539 1538 1538 1537 1536 1535 1534 1532 1530 1530 1530 1529 1529 1528 1528 1528 1528 1528
1525 1528 1530 1532 1534 1535 1536 1537 1537 1538 1539 1540 1540 1540 1541 1541 1540 1540 1540 1539 1539 1538 1538 1537 1536 1535 1535 1534 1533 1532 1531 1530 1528 1526 1525 1525 1524 1524 1523 1523 1522 1522 1522
1522 1524 1527 1528 1530 1531 1533 1534 1535 1535 1536 1537 1537 1538 1538 1538 1538 1537 1537 1536 1536 1535 1534 1534 1533 1532 1531 1530 1529 1527 1526 1525 1524 1522 1520 1520 1519 1519 1518 1518 1517 1517 1517
1518 1520 1522 1524 1526 1528 1530 1531 1532 1532 1533 1534 1534 1534 1535 1534 1534 1534 1533 1533 1532 1532 1531 1530 1529 1527 1526 1525 1524 1523 1521 1520 1519 1517 1515 1515 1514 1514 1513 1512 1511 1511 1511
1513 1515 1518 1521 1523 1525 1526 1527 1528 1529 1530 1530 1531 1531 1531 1531 1531 1530 1530 1529 1528 1528 1527 1526 1524 1523 1522 1520 1519 1517 1516 1515 1514 1512 1511 1510 1509 1508 1508 1507 1506 1505 1504
1509 1511 1514 1517 1519 1521 1522 1523 1524 1525 1526 1526 1527 1527 1527 1527 1527 1526 1526 1525 1524 1523 1522 1521 1520 1518 1517 1515 1514 1512 1511 1510 1508 1507 1505 1504 1503 1503 1503 1501 1500 1499 1498
1505 1508 1510 1512 1514 1516 1518 1519 1520 1521 1522 1522 1523 1523 1522 1522 1522 1522 1521 1520 1519 1518 1517 1516 1515 1513 1512 1510 1509 1507 1506 1504 1503 1502 1500 1499 1498 1498 1497 1495 1495 1493 1492
1500 1503 1506 1508 1510 1512 1514 1515 1516 1517 1517 1518 1518 1518 1517 1517 1517 1516 1516 1515 1513 1512 1511 1510 1509 1508 1506 1505 1503 1501 1500 1499 1498 1496 1494 1493 1492 1492 1491 1490 1488 1487 1486
1496 1498 1501 1503 1505 1507 1509 1510 1511 1512 1512 1512 1512 1512 1512 1511 1511 1511 1510 1508 1507 1506 1505 1504 1503 1502 1501 1499 1497 1495 1493 1492 1491 1490 1488 1487 1486 1485 1484 1483 1482 1481 1478
1491 1494 1497 1499 1501 1502 1504 1505 1506 1506 1507 1507 1506 1506 1506 1505 1505 1504 1504 1502 1500 1499 1498 1497 1496 1495 1494 1492 1490 1488 1486 1485 1484 1483 1481 1480 1479 1478 1477 1476 1475 1474 1472
1488 1491 1493 1495 1496 1498 1499 1500 1500 1501 1501 1500 1500 1500 1499 1498 1498 1497 1497 1495 1493 1492 1491 1490 1489 1488 1487 1485 1483 1481 1479 1478 1476 1475 1473 1472 1471 1471 1470 1469 1468 1466 1465
1485 1487 1489 1491 1492 1493 1494 1494 1495 1495 1494 1494 1493 1492 1492 1491 1490 1489 1489 1488 1486 1484 1482 1482 1481 1480 1479 1478 1476 1474 1473 1471 1469 1467 1465 1464 1463 1462 1462 1461 1460 1459 1457
1481 1483 1485 1486 1487 1488 1488 1488 1489 1489 1488 1487 1486 1485 1484 1483 1482 1482 1481 1479 1478 1476 1474 1473 1473 1472 1470 1469 1468 1467 1465 1463 1461 1459 1457 1456 1455 1454 1453 1452 1452 1451 1449
1478 1479 1480 1481 1481 1482 1482 1482 1482 1482 1482 1480 1479 1477 1476 1475 1474 1473 1472 1471 1469 1467 1466 1464 1464 1463 1461 1460 1459 1458 1457 1455 1453 1451 1449 1448 1447 1446 1445 1444 1443 1443 1441
1475 1475 1476 1476 1476 1476 1476 1476 1476 1475 1475 1473 1472 1470 1468 1466 1465 1465 1463 1461 1460 1458 1456 1455 1454 1453 1452 1451 1450 1449 1448 1447 1445 1443 1442 1440 1439 1438 1437 1436 1436 1435 1433
1472 1472 1472 1472 1472 1471 1471 1470 1470 1469 1468 1467 1465 1463 1460 1459 1457 1455 1454 1452 1450 1449 1446 1444 1443 1442 1441 1441 1440 1440 1439 1438 1437 1435 1434 1432 1431 1430 1429 1428 1428 1427 1425
1471 1470 1470 1469 1469 1467 1466 1465 1463 1462 1461 1459 1457 1455 1453 1450 1448 1446 1444 1442 1440 1438 1436 1434 1433 1432 1431 1431 1431 1430 1430 1429 1428 1427 1425 1424 1423 1422 1421 1420 1419 1418 1417
1470 1469 1468 1467 1466 1464 1462 1460 1458 1455 1453 1450 1449 1447 1444 1441 1439 1436 1434 1432 1429 1428 1426 1424 1423 1422 1422 1421 1421 1421 1420 1420 1420 1419 1417 1416 1415 1414 1413 1412 1411 1411 1410
1470 1468 1467 1465 1463 1461 1458 1455 1453 1450 1447 1443 1441 1438 1436 1432 1430 1427 1425 1422 1419 1418 1416 1415 1414 1413 1412 1412 1412 1412 1411 1411 1411 1410 1409 1408 1407 1406 1405 1404 1404 1403 1402
1468 1466 1464 1461 1459 1456 1453 1450 1447 1444 1440 1437 1434 1431 1428 1424 1420 1418 1416 1413 1410 1408 1407 1405 1404 1404 1403 1402 1402 1402 1402 1402 1402 1402 1401 1400 1399 1398 1397 1397 1396 1395 1395
1464 1462 1460 1457 1454 1451 1448 1445 1441 1438 1434 1430 1427 1424 1421 1417 1412 1409 1406 1404 1401 1399 1398 1397 1395 1395 1394 1394 1394 1394 1394 1394 1394 1393 1393 1392 1391 1391 1390 1389 1388 1388 1387
1460 1458 1455 1452 1449 1446 1442 1439 1435 1432 1428 1424 1420 1416 1413 1409 1405 1401 1397 1395 1392 1390 1389 1388 1387 1386 1386 1386 1386 1386 1386 1386 1386 1386 1385 1385 1384 1383 1383 1382 1381 1381 1380
1455 1452 1449 1447 1443 1440 1436 1433 1429 1426 1422 1417 1413 1409 1405 1401 1397 1393 1390 1387 1384 1382 1381 1380 1379 1378 1378 1378 1378 1379 1378 1378 1379 1378 1378 1377 1377 1376 1376 1375 1374 1374 1374
1450 1447 1444 1440 1437 1434 1430 1427 1423 1419 1415 1411 1407 1402 1398 1394 1390 1386 1382 1379 1377 1375 1374 1373 1372 1371 1371 1371 1371 1371 1371 1372 1372 1371 1371 1371 1370 1369 1369 1368 1367 1367 1367
1444 1441 1438 1434 1431 1427 1424 1420 1416 1413 1409 1405 1400 1396 1391 1387 1383 1379 1376 1373 1371 1369 1368 1367 1366 1366 1365 1365 1365 1365 1366 1366 1366 1365 1365 1364 1363 1363 1362 1361 1361 1360 1360
1438 1435 1432 1428 1425 1422 1418 1414 1410 1406 1402 1398 1394 1390 1386 1381 1377 1374 1371 1368 1366 1365 1364 1362 1362 1361 1360 1360 1360 1361 1361 1360 1360 1359 1358 1357 1357 1356 1355 1355 1354 1354 1354